When you browse on this site, cookies collect data to enhance your experience and personalize the content and advertising you see.
Visit our Privacy Policy to learn more. By continuing to use the site, you agree to this use of cookies and data.
  • In Germany
  • List of Countries
  • For 7 days
  • Water Temperature
  • Satellite Maps
  • Weather Map
  • Weather Widgets
  • user-avatar
    Login

    Hourly Weather Lubango

    Today, 26 March, Tuesday

    Time Temperature Precipitation Wind Pressure Humidity
    00:00 +15°C° 0 mm 0 mps 608 mmHg 81%
    01:00 +16°C° 0 mm 1 mps 608 mmHg 82%
    02:00 +16°C° 0 mm 1 mps 608 mmHg 83%
    03:00 +15°C° 0 mm 0 mps 607 mmHg 83%
    04:00 +15°C° 0 mm 0 mps 607 mmHg 84%
    05:00 +16°C° 0 mm 1 mps 608 mmHg 81%
    06:00 +18°C° 0 mm 1 mps 608 mmHg 79%
    07:00 +18°C° 0 mm 1 mps 609 mmHg 77%
    08:00 +20°C° 0.4 mm 1 mps 610 mmHg 69%
    09:00 +22°C° 0.4 mm 1 mps 611 mmHg 61%
    10:00 +24°C° 0.4 mm 1 mps 612 mmHg 53%
    11:00 +25°C° 1.5 mm 1 mps 612 mmHg 53%
    12:00 +25°C° 1.5 mm 1 mps 611 mmHg 53%
    13:00 +26°C° 1.5 mm 1 mps 611 mmHg 54%
    14:00 +25°C° 1.9 mm 1 mps 610 mmHg 58%
    15:00 +24°C° 1.9 mm 1 mps 610 mmHg 63%
    16:00 +23°C° 1.9 mm 2 mps 609 mmHg 67%
    17:00 +21°C° 2.2 mm 1 mps 609 mmHg 73%
    18:00 +20°C° 2.2 mm 1 mps 609 mmHg 78%
    19:00 +19°C° 2.2 mm 1 mps 609 mmHg 84%
    20:00 +17°C° 1.1 mm 0 mps 609 mmHg 84%
    21:00 +17°C° 1.1 mm 0 mps 609 mmHg 84%
    22:00 +16°C° 1.1 mm 0 mps 610 mmHg 85%
    23:00 +16°C° 0.5 mm 0 mps 610 mmHg 84%

    Tomorrow, 27 March, Wednesday

    Time Temperature Precipitation Wind Pressure Humidity
    00:00 +16°C° 0.5 mm 0 mps 609 mmHg 83%
    01:00 +16°C° 0.5 mm 0 mps 609 mmHg 82%
    02:00 +16°C° 0 mm 0 mps 609 mmHg 81%
    03:00 +16°C° 0 mm 1 mps 609 mmHg 80%
    04:00 +16°C° 0 mm 1 mps 608 mmHg 80%
    05:00 +18°C° 0 mm 1 mps 609 mmHg 79%
    06:00 +18°C° 0 mm 1 mps 609 mmHg 78%
    07:00 +18°C° 0 mm 1 mps 609 mmHg 77%
    08:00 +20°C° 0 mm 1 mps 610 mmHg 70%
    09:00 +22°C° 0 mm 1 mps 611 mmHg 64%
    10:00 +24°C° 0 mm 1 mps 612 mmHg 57%
    11:00 +25°C° 0.2 mm 2 mps 612 mmHg 52%
    12:00 +27°C° 0.2 mm 2 mps 612 mmHg 47%
    13:00 +28°C° 0.2 mm 2 mps 612 mmHg 41%
    14:00 +27°C° 0.2 mm 2 mps 611 mmHg 45%
    15:00 +26°C° 0.2 mm 2 mps 610 mmHg 49%
    16:00 +25°C° 0.2 mm 1 mps 610 mmHg 53%
    17:00 +24°C° 0.3 mm 1 mps 610 mmHg 58%
    18:00 +22°C° 0.3 mm 1 mps 609 mmHg 63%
    19:00 +21°C° 0.3 mm 1 mps 609 mmHg 67%
    20:00 +20°C° 0.2 mm 1 mps 610 mmHg 70%
    21:00 +20°C° 0.2 mm 1 mps 610 mmHg 72%
    22:00 +19°C° 0.2 mm 1 mps 610 mmHg 74%
    23:00 +19°C° 0 mm 1 mps 610 mmHg 75%

    Day after tomorrow, 28 March, Thursday

    Time Temperature Precipitation Wind Pressure Humidity
    00:00 +18°C° 0 mm 1 mps 610 mmHg 75%
    01:00 +18°C° 0 mm 1 mps 609 mmHg 76%
    02:00 +18°C° 0 mm 1 mps 609 mmHg 76%
    03:00 +18°C° 0 mm 1 mps 609 mmHg 77%
    04:00 +16°C° 0 mm 1 mps 608 mmHg 77%
    05:00 +18°C° 0 mm 1 mps 609 mmHg 77%
    06:00 +18°C° 0 mm 1 mps 609 mmHg 77%
    07:00 +18°C° 0 mm 1 mps 610 mmHg 77%
    08:00 +20°C° 0.1 mm 2 mps 611 mmHg 68%
    09:00 +24°C° 0.1 mm 3 mps 612 mmHg 58%
    10:00 +26°C° 0.1 mm 4 mps 613 mmHg 49%
    11:00 +27°C° 0.2 mm 4 mps 612 mmHg 47%
    12:00 +28°C° 0.2 mm 3 mps 612 mmHg 45%
    13:00 +28°C° 0.2 mm 3 mps 612 mmHg 43%
    14:00 +28°C° 0.9 mm 3 mps 611 mmHg 46%
    15:00 +27°C° 0.9 mm 3 mps 610 mmHg 50%
    16:00 +26°C° 0.9 mm 2 mps 609 mmHg 53%
    17:00 +24°C° 0.1 mm 2 mps 609 mmHg 57%
    18:00 +23°C° 0.1 mm 2 mps 609 mmHg 60%
    19:00 +20°C° 0.1 mm 2 mps 609 mmHg 64%
    20:00 +20°C° 0.5 mm 2 mps 609 mmHg 67%
    21:00 +20°C° 0.5 mm 1 mps 609 mmHg 70%
    22:00 +19°C° 0.5 mm 1 mps 609 mmHg 74%
    23:00 +19°C° 0 mm 1 mps 609 mmHg 75%

    29 March, Friday

    Time Temperature Precipitation Wind Pressure Humidity
    00:00 +19°C° 0 mm 1 mps 609 mmHg 76%
    01:00 +18°C° 0 mm 1 mps 608 mmHg 77%
    02:00 +18°C° 0 mm 1 mps 608 mmHg 77%
    03:00 +18°C° 0 mm 1 mps 608 mmHg 78%
    04:00 +18°C° 0 mm 1 mps 607 mmHg 78%
    05:00 +18°C° 0 mm 1 mps 608 mmHg 77%
    06:00 +18°C° 0 mm 1 mps 608 mmHg 77%
    07:00 +19°C° 0 mm 1 mps 609 mmHg 77%
    08:00 +20°C° 0.1 mm 2 mps 610 mmHg 67%
    09:00 +24°C° 0.1 mm 3 mps 611 mmHg 57%
    10:00 +26°C° 0.1 mm 4 mps 612 mmHg 48%
    11:00 +27°C° 0.1 mm 3 mps 612 mmHg 45%
    12:00 +28°C° 0.1 mm 3 mps 611 mmHg 43%
    13:00 +28°C° 0.1 mm 3 mps 610 mmHg 41%
    14:00 +27°C° 0 mm 2 mps 610 mmHg 44%
    15:00 +26°C° 0 mm 1 mps 609 mmHg 48%
    16:00 +25°C° 0 mm 1 mps 608 mmHg 51%
    17:00 +24°C° 0.1 mm 1 mps 608 mmHg 55%
    18:00 +23°C° 0.1 mm 1 mps 608 mmHg 58%
    19:00 +22°C° 0.1 mm 1 mps 608 mmHg 61%
    20:00 +21°C° 0.3 mm 1 mps 608 mmHg 66%
    21:00 +20°C° 0.3 mm 1 mps 609 mmHg 72%
    22:00 +19°C° 0.3 mm 1 mps 609 mmHg 78%
    23:00 +19°C° 0.2 mm 1 mps 608 mmHg 77%

    30 March, Saturday

    Time Temperature Precipitation Wind Pressure Humidity
    00:00 +19°C° 0.2 mm 1 mps 608 mmHg 77%
    01:00 +19°C° 0.2 mm 1 mps 608 mmHg 77%
    02:00 +19°C° 1 mm 1 mps 608 mmHg 78%
    03:00 +18°C° 1 mm 1 mps 608 mmHg 80%
    04:00 +18°C° 1 mm 1 mps 607 mmHg 82%
    05:00 +18°C° 0.1 mm 1 mps 608 mmHg 80%
    06:00 +19°C° 0.1 mm 1 mps 608 mmHg 79%
    07:00 +19°C° 0.1 mm 1 mps 608 mmHg 78%
    08:00 +21°C° 0.2 mm 1 mps 610 mmHg 68%
    09:00 +24°C° 0.2 mm 2 mps 611 mmHg 59%
    10:00 +26°C° 0.2 mm 3 mps 612 mmHg 49%
    11:00 +26°C° 0.1 mm 2 mps 611 mmHg 48%
    12:00 +27°C° 0.1 mm 2 mps 611 mmHg 46%
    13:00 +27°C° 0.1 mm 2 mps 610 mmHg 45%
    14:00 +26°C° 0.5 mm 2 mps 609 mmHg 51%
    15:00 +24°C° 0.5 mm 1 mps 609 mmHg 57%
    16:00 +23°C° 0.5 mm 1 mps 608 mmHg 63%
    17:00 +22°C° 0.7 mm 1 mps 608 mmHg 69%
    18:00 +20°C° 0.7 mm 1 mps 608 mmHg 75%
    19:00 +19°C° 0.7 mm 1 mps 608 mmHg 81%
    20:00 +19°C° 0.9 mm 1 mps 608 mmHg 83%
    21:00 +18°C° 0.9 mm 1 mps 609 mmHg 86%
    22:00 +18°C° 0.9 mm 1 mps 609 mmHg 88%
    23:00 +18°C° 1.8 mm 1 mps 609 mmHg 88%

    31 March, Sunday

    Time Temperature Precipitation Wind Pressure Humidity
    00:00 +18°C° 1.8 mm 1 mps 609 mmHg 88%
    01:00 +18°C° 1.8 mm 1 mps 609 mmHg 88%
    02:00 +18°C° 1.5 mm 1 mps 608 mmHg 87%
    03:00 +18°C° 1.5 mm 1 mps 608 mmHg 85%
    04:00 +18°C° 1.5 mm 1 mps 608 mmHg 83%
    05:00 +18°C° 0 mm 1 mps 608 mmHg 82%
    06:00 +18°C° 0 mm 1 mps 609 mmHg 80%
    07:00 +17°C° 0 mm 0 mps 609 mmHg 78%
    08:00 +20°C° 0.1 mm 1 mps 610 mmHg 72%
    09:00 +22°C° 0.1 mm 1 mps 610 mmHg 66%
    10:00 +23°C° 0.1 mm 1 mps 611 mmHg 60%
    11:00 +24°C° 0.2 mm 1 mps 610 mmHg 57%
    12:00 +24°C° 0.2 mm 1 mps 610 mmHg 54%
    13:00 +25°C° 0.2 mm 1 mps 610 mmHg 50%
    14:00 +25°C° 0 mm 1 mps 609 mmHg 51%
    15:00 +25°C° 0 mm 1 mps 609 mmHg 51%
    16:00 +25°C° 0 mm 1 mps 609 mmHg 52%
    17:00 +24°C° 0.2 mm 1 mps 609 mmHg 58%
    18:00 +22°C° 0.2 mm 1 mps 609 mmHg 64%
    19:00 +20°C° 0.2 mm 1 mps 608 mmHg 70%
    20:00 +20°C° 0.6 mm 1 mps 608 mmHg 73%
    21:00 +19°C° 0.6 mm 1 mps 608 mmHg 76%
    22:00 +19°C° 0.6 mm 1 mps 609 mmHg 79%
    23:00 +19°C° 0.3 mm 1 mps 608 mmHg 78%
    Show more